owner,sensor,date,latitude,longitude,vertical_datum,wind_speed,wind_to_direction,wind_speed_of_gust,qcFlag 
WAVCIS,ioos:station:WAVCIS:CSI15:1,2009-03-01T00:00:00Z,28.8332,-90.8320,10.0,13.99,313.0,,'11111222,11111222,99999999' 
WAVCIS,ioos:station:WAVCIS:CSI15:1,2009-03-01T01:00:00Z,28.8332,-90.8320,10.0,13.13,319.0,,'11111222,11111222,99999999' 
WAVCIS,ioos:station:WAVCIS:CSI15:1,2009-03-01T02:00:00Z,28.8332,-90.8320,10.0,15.07,309.0,,'11111222,11111222,99999999' 
WAVCIS,ioos:station:WAVCIS:CSI15:1,2009-03-01T03:00:00Z,28.8332,-90.8320,10.0,14.91,317.0,,'11111222,11111222,99999999' 
WAVCIS,ioos:station:WAVCIS:CSI15:1,2009-03-01T04:00:00Z,28.8332,-90.8320,10.0,16.78,312.0,,'11111222,11111222,99999999' 
WAVCIS,ioos:station:WAVCIS:CSI15:1,2009-03-01T05:00:00Z,28.8332,-90.8320,10.0,17.9,308.0,,'11111222,11111222,99999999' 
WAVCIS,ioos:station:WAVCIS:CSI15:1,2009-03-01T06:00:00Z,28.8332,-90.8320,10.0,17.4,306.0,,'11111222,11111222,99999999' 
WAVCIS,ioos:station:WAVCIS:CSI15:1,2009-03-01T07:00:00Z,28.8332,-90.8320,10.0,17.35,308.0,,'11111222,11111222,99999999' 
WAVCIS,ioos:station:WAVCIS:CSI15:1,2009-03-01T08:00:00Z,28.8332,-90.8320,10.0,15.94,308.0,,'11111222,11111222,99999999' 
WAVCIS,ioos:station:WAVCIS:CSI15:1,2009-03-01T09:00:00Z,28.8332,-90.8320,10.0,13.24,310.0,,'11111222,11111222,99999999' 
WAVCIS,ioos:station:WAVCIS:CSI15:1,2009-03-01T10:00:00Z,28.8332,-90.8320,10.0,15.63,315.0,,'11111222,11111222,99999999' 
WAVCIS,ioos:station:WAVCIS:CSI15:1,2009-03-01T11:00:00Z,28.8332,-90.8320,10.0,15.75,315.0,,'11111222,11111222,99999999' 
WAVCIS,ioos:station:WAVCIS:CSI15:1,2009-03-01T12:00:00Z,28.8332,-90.8320,10.0,15.65,313.0,,'11111222,11111222,99999999' 
WAVCIS,ioos:station:WAVCIS:CSI15:1,2009-03-01T13:00:00Z,28.8332,-90.8320,10.0,15.16,311.0,,'11111222,11111222,99999999' 
WAVCIS,ioos:station:WAVCIS:CSI15:1,2009-03-01T14:00:00Z,28.8332,-90.8320,10.0,13.8,303.0,,'11111222,11111222,99999999' 
WAVCIS,ioos:station:WAVCIS:CSI15:1,2009-03-01T15:00:00Z,28.8332,-90.8320,10.0,13.47,307.0,,'11111222,11111222,99999999' 
WAVCIS,ioos:station:WAVCIS:CSI15:1,2009-03-01T16:00:00Z,28.8332,-90.8320,10.0,11.91,308.0,,'11111222,11111222,99999999' 
WAVCIS,ioos:station:WAVCIS:CSI15:1,2009-03-01T17:00:00Z,28.8332,-90.8320,10.0,11.65,299.0,,'11111222,11111222,99999999' 
WAVCIS,ioos:station:WAVCIS:CSI15:1,2009-03-01T18:00:00Z,28.8332,-90.8320,10.0,12.12,300.0,,'11111222,11111222,99999999' 
WAVCIS,ioos:station:WAVCIS:CSI15:1,2009-03-01T19:00:00Z,28.8332,-90.8320,10.0,12.86,300.0,,'11111222,11111222,99999999' 
WAVCIS,ioos:station:WAVCIS:CSI15:1,2009-03-01T20:00:00Z,28.8332,-90.8320,10.0,12.64,301.0,,'11111222,11111222,99999999' 
WAVCIS,ioos:station:WAVCIS:CSI15:1,2009-03-01T21:00:00Z,28.8332,-90.8320,10.0,13.75,303.0,,'11111222,11111222,99999999' 
WAVCIS,ioos:station:WAVCIS:CSI15:1,2009-03-01T22:00:00Z,28.8332,-90.8320,10.0,12.62,302.0,,'11111222,11111222,99999999' 
WAVCIS,ioos:station:WAVCIS:CSI15:1,2009-03-01T23:00:00Z,28.8332,-90.8320,10.0,13.16,303.0,,'11111222,11111222,99999999' 
WAVCIS,ioos:station:WAVCIS:CSI15:1,2009-03-02T00:00:00Z,28.8332,-90.8320,10.0,13.12,308.0,,'11111222,11111222,99999999' 
WAVCIS,ioos:station:WAVCIS:CSI15:1,2009-03-02T01:00:00Z,28.8332,-90.8320,10.0,14.24,311.0,,'11111222,11111222,99999999' 
WAVCIS,ioos:station:WAVCIS:CSI15:1,2009-03-02T02:00:00Z,28.8332,-90.8320,10.0,13.81,317.0,,'11111222,11111222,99999999' 
WAVCIS,ioos:station:WAVCIS:CSI15:1,2009-03-02T03:00:00Z,28.8332,-90.8320,10.0,14.13,319.0,,'11111222,11111222,99999999' 
WAVCIS,ioos:station:WAVCIS:CSI15:1,2009-03-02T04:00:00Z,28.8332,-90.8320,10.0,14.77,322.0,,'11111222,11111222,99999999' 
WAVCIS,ioos:station:WAVCIS:CSI15:1,2009-03-02T05:00:00Z,28.8332,-90.8320,10.0,13.84,329.0,,'11111222,11111222,99999999' 
WAVCIS,ioos:station:WAVCIS:CSI15:1,2009-03-02T06:00:00Z,28.8332,-90.8320,10.0,13.21,328.0,,'11111222,11111222,99999999' 
WAVCIS,ioos:station:WAVCIS:CSI15:1,2009-03-02T07:00:00Z,28.8332,-90.8320,10.0,12.25,328.0,,'11111222,11111222,99999999' 
WAVCIS,ioos:station:WAVCIS:CSI15:1,2009-03-02T08:00:00Z,28.8332,-90.8320,10.0,10.9,333.0,,'11111222,11111222,99999999' 
WAVCIS,ioos:station:WAVCIS:CSI15:1,2009-03-02T09:00:00Z,28.8332,-90.8320,10.0,10.39,329.0,,'11111222,11111222,99999999' 
WAVCIS,ioos:station:WAVCIS:CSI15:1,2009-03-02T10:00:00Z,28.8332,-90.8320,10.0,10.66,336.0,,'11111222,11111222,99999999' 
WAVCIS,ioos:station:WAVCIS:CSI15:1,2009-03-02T11:00:00Z,28.8332,-90.8320,10.0,8.91,337.0,,'11111222,11111222,99999999' 
WAVCIS,ioos:station:WAVCIS:CSI15:1,2009-03-02T12:00:00Z,28.8332,-90.8320,10.0,8.51,342.0,,'11111222,11111222,99999999' 
WAVCIS,ioos:station:WAVCIS:CSI15:1,2009-03-02T13:00:00Z,28.8332,-90.8320,10.0,8.59,350.0,,'11111222,11111222,99999999' 
WAVCIS,ioos:station:WAVCIS:CSI15:1,2009-03-02T14:00:00Z,28.8332,-90.8320,10.0,9.86,345.0,,'11111222,11111222,99999999' 
WAVCIS,ioos:station:WAVCIS:CSI15:1,2009-03-02T15:00:00Z,28.8332,-90.8320,10.0,7.5,356.0,,'11111222,11111222,99999999' 
WAVCIS,ioos:station:WAVCIS:CSI15:1,2009-03-02T16:00:00Z,28.8332,-90.8320,10.0,5.442,0.0,,'11111222,11111222,99999999' 
WAVCIS,ioos:station:WAVCIS:CSI15:1,2009-03-02T17:00:00Z,28.8332,-90.8320,10.0,5.732,350.0,,'11111222,11111222,99999999' 
WAVCIS,ioos:station:WAVCIS:CSI15:1,2009-03-02T18:00:00Z,28.8332,-90.8320,10.0,3.759,319.0,,'11111222,11111222,99999999' 
WAVCIS,ioos:station:WAVCIS:CSI15:1,2009-03-02T19:00:00Z,28.8332,-90.8320,10.0,3.479,300.0,,'11111222,11111222,99999999' 
WAVCIS,ioos:station:WAVCIS:CSI15:1,2009-03-02T20:00:00Z,28.8332,-90.8320,10.0,2.952,293.0,,'11111222,11111222,99999999' 
WAVCIS,ioos:station:WAVCIS:CSI15:1,2009-03-02T21:00:00Z,28.8332,-90.8320,10.0,4.449,264.0,,'11111222,11111222,99999999' 
WAVCIS,ioos:station:WAVCIS:CSI15:1,2009-03-02T22:00:00Z,28.8332,-90.8320,10.0,4.983,261.0,,'11111222,11111222,99999999' 
WAVCIS,ioos:station:WAVCIS:CSI15:1,2009-03-02T23:00:00Z,28.8332,-90.8320,10.0,4.955,286.0,,'11111222,11111222,99999999' 
WAVCIS,ioos:station:WAVCIS:CSI15:1,2009-03-03T00:00:00Z,28.8332,-90.8320,10.0,5.86,284.0,,'11111222,11111222,99999999' 
WAVCIS,ioos:station:WAVCIS:CSI15:1,2009-03-03T01:00:00Z,28.8332,-90.8320,10.0,6.043,300.0,,'11111222,11111222,99999999' 
WAVCIS,ioos:station:WAVCIS:CSI15:1,2009-03-03T02:00:00Z,28.8332,-90.8320,10.0,6.078,302.0,,'11111222,11111222,99999999' 
WAVCIS,ioos:station:WAVCIS:CSI15:1,2009-03-03T03:00:00Z,28.8332,-90.8320,10.0,5.74,311.0,,'11111222,11111222,99999999' 
WAVCIS,ioos:station:WAVCIS:CSI15:1,2009-03-03T04:00:00Z,28.8332,-90.8320,10.0,4.319,338.0,,'11111222,11111222,99999999' 
WAVCIS,ioos:station:WAVCIS:CSI15:1,2009-03-03T05:00:00Z,28.8332,-90.8320,10.0,5.498,341.0,,'11111222,11111222,99999999' 
WAVCIS,ioos:station:WAVCIS:CSI15:1,2009-03-03T06:00:00Z,28.8332,-90.8320,10.0,5.328,357.0,,'11111222,11111222,99999999' 
WAVCIS,ioos:station:WAVCIS:CSI15:1,2009-03-03T07:00:00Z,28.8332,-90.8320,10.0,6.308,348.0,,'11111222,11111222,99999999' 
WAVCIS,ioos:station:WAVCIS:CSI15:1,2009-03-03T08:00:00Z,28.8332,-90.8320,10.0,5.266,2.0,,'11111222,11111222,99999999' 
WAVCIS,ioos:station:WAVCIS:CSI15:1,2009-03-03T09:00:00Z,28.8332,-90.8320,10.0,7.69,18.0,,'11111222,11111222,99999999' 
WAVCIS,ioos:station:WAVCIS:CSI15:1,2009-03-03T10:00:00Z,28.8332,-90.8320,10.0,7.95,21.0,,'11111222,11111222,99999999' 
WAVCIS,ioos:station:WAVCIS:CSI15:1,2009-03-03T11:00:00Z,28.8332,-90.8320,10.0,7.91,23.0,,'11111222,11111222,99999999' 
WAVCIS,ioos:station:WAVCIS:CSI15:1,2009-03-03T12:00:00Z,28.8332,-90.8320,10.0,9.62,22.0,,'11111222,11111222,99999999' 
WAVCIS,ioos:station:WAVCIS:CSI15:1,2009-03-03T13:00:00Z,28.8332,-90.8320,10.0,8.6,28.0,,'11111222,11111222,99999999' 
WAVCIS,ioos:station:WAVCIS:CSI15:1,2009-03-03T14:00:00Z,28.8332,-90.8320,10.0,8.57,33.0,,'11111222,11111222,99999999' 
WAVCIS,ioos:station:WAVCIS:CSI15:1,2009-03-03T15:00:00Z,28.8332,-90.8320,10.0,8.05,32.0,,'11111222,11111222,99999999' 
WAVCIS,ioos:station:WAVCIS:CSI15:1,2009-03-03T16:00:00Z,28.8332,-90.8320,10.0,7.93,38.0,,'11111222,11111222,99999999' 
WAVCIS,ioos:station:WAVCIS:CSI15:1,2009-03-03T17:00:00Z,28.8332,-90.8320,10.0,7.01,43.0,,'11111222,11111222,99999999' 
WAVCIS,ioos:station:WAVCIS:CSI15:1,2009-03-03T18:00:00Z,28.8332,-90.8320,10.0,7.11,47.0,,'11111222,11111222,99999999' 
WAVCIS,ioos:station:WAVCIS:CSI15:1,2009-03-03T19:00:00Z,28.8332,-90.8320,10.0,6.476,51.0,,'11111222,11111222,99999999' 
WAVCIS,ioos:station:WAVCIS:CSI15:1,2009-03-03T20:00:00Z,28.8332,-90.8320,10.0,6.609,43.0,,'11111222,11111222,99999999' 
WAVCIS,ioos:station:WAVCIS:CSI15:1,2009-03-03T21:00:00Z,28.8332,-90.8320,10.0,5.75,49.0,,'11111222,11111222,99999999' 
WAVCIS,ioos:station:WAVCIS:CSI15:1,2009-03-03T22:00:00Z,28.8332,-90.8320,10.0,6.225,41.0,,'11111222,11111222,99999999' 
WAVCIS,ioos:station:WAVCIS:CSI15:1,2009-03-03T23:00:00Z,28.8332,-90.8320,10.0,6.166,49.0,,'11111222,11111222,99999999' 
WAVCIS,ioos:station:WAVCIS:CSI15:1,2009-03-04T00:00:00Z,28.8332,-90.8320,10.0,6.255,65.0,,'11111222,11111222,99999999' 
WAVCIS,ioos:station:WAVCIS:CSI15:1,2009-03-04T01:00:00Z,28.8332,-90.8320,10.0,6.516,66.0,,'11111222,11111222,99999999' 
WAVCIS,ioos:station:WAVCIS:CSI15:1,2009-03-04T02:00:00Z,28.8332,-90.8320,10.0,7.25,70.0,,'11111222,11111222,99999999' 
WAVCIS,ioos:station:WAVCIS:CSI15:1,2009-03-04T03:00:00Z,28.8332,-90.8320,10.0,7.38,75.0,,'11111222,11111222,99999999' 
WAVCIS,ioos:station:WAVCIS:CSI15:1,2009-03-04T04:00:00Z,28.8332,-90.8320,10.0,7.61,81.0,,'11111222,11111222,99999999' 
WAVCIS,ioos:station:WAVCIS:CSI15:1,2009-03-04T05:00:00Z,28.8332,-90.8320,10.0,7.2,80.0,,'11111222,11111222,99999999' 
WAVCIS,ioos:station:WAVCIS:CSI15:1,2009-03-04T06:00:00Z,28.8332,-90.8320,10.0,7.73,92.0,,'11111222,11111222,99999999' 
WAVCIS,ioos:station:WAVCIS:CSI15:1,2009-03-04T07:00:00Z,28.8332,-90.8320,10.0,6.202,101.0,,'11111222,11111222,99999999' 
WAVCIS,ioos:station:WAVCIS:CSI15:1,2009-03-04T08:00:00Z,28.8332,-90.8320,10.0,7.56,95.0,,'11111222,11111222,99999999' 
WAVCIS,ioos:station:WAVCIS:CSI15:1,2009-03-04T09:00:00Z,28.8332,-90.8320,10.0,7.81,91.0,,'11111222,11111222,99999999' 
WAVCIS,ioos:station:WAVCIS:CSI15:1,2009-03-04T10:00:00Z,28.8332,-90.8320,10.0,7.86,88.0,,'11111222,11111222,99999999' 
WAVCIS,ioos:station:WAVCIS:CSI15:1,2009-03-04T11:00:00Z,28.8332,-90.8320,10.0,8.36,94.0,,'11111222,11111222,99999999' 
WAVCIS,ioos:station:WAVCIS:CSI15:1,2009-03-04T12:00:00Z,28.8332,-90.8320,10.0,7.08,130.0,,'11111222,11111222,99999999' 
WAVCIS,ioos:station:WAVCIS:CSI15:1,2009-03-04T13:00:00Z,28.8332,-90.8320,10.0,6.471,122.0,,'11111222,11111222,99999999' 
WAVCIS,ioos:station:WAVCIS:CSI15:1,2009-03-04T14:00:00Z,28.8332,-90.8320,10.0,5.518,119.0,,'11111222,11111222,99999999' 
WAVCIS,ioos:station:WAVCIS:CSI15:1,2009-03-04T15:00:00Z,28.8332,-90.8320,10.0,4.7,122.0,,'11111222,11111222,99999999' 
WAVCIS,ioos:station:WAVCIS:CSI15:1,2009-03-04T16:00:00Z,28.8332,-90.8320,10.0,5.376,103.0,,'11111222,11111222,99999999' 
WAVCIS,ioos:station:WAVCIS:CSI15:1,2009-03-04T17:00:00Z,28.8332,-90.8320,10.0,6.68,108.0,,'11111222,11111222,99999999' 
WAVCIS,ioos:station:WAVCIS:CSI15:1,2009-03-04T18:00:00Z,28.8332,-90.8320,10.0,7.0,105.0,,'11111222,11111222,99999999' 
WAVCIS,ioos:station:WAVCIS:CSI15:1,2009-03-04T19:00:00Z,28.8332,-90.8320,10.0,7.16,107.0,,'11111222,11111222,99999999' 
WAVCIS,ioos:station:WAVCIS:CSI15:1,2009-03-04T20:00:00Z,28.8332,-90.8320,10.0,7.13,105.0,,'11111222,11111222,99999999' 
WAVCIS,ioos:station:WAVCIS:CSI15:1,2009-03-04T21:00:00Z,28.8332,-90.8320,10.0,7.6,106.0,,'11111222,11111222,99999999' 
WAVCIS,ioos:station:WAVCIS:CSI15:1,2009-03-04T22:00:00Z,28.8332,-90.8320,10.0,8.18,105.0,,'11111222,11111222,99999999' 
WAVCIS,ioos:station:WAVCIS:CSI15:1,2009-03-04T23:00:00Z,28.8332,-90.8320,10.0,8.14,106.0,,'11111222,11111222,99999999' 
WAVCIS,ioos:station:WAVCIS:CSI15:1,2009-03-05T00:00:00Z,28.8332,-90.8320,10.0,8.37,109.0,,'11111222,11111222,99999999' 
WAVCIS,ioos:station:WAVCIS:CSI15:1,2009-03-05T01:00:00Z,28.8332,-90.8320,10.0,8.24,108.0,,'11111222,11111222,99999999' 
WAVCIS,ioos:station:WAVCIS:CSI15:1,2009-03-05T02:00:00Z,28.8332,-90.8320,10.0,8.58,111.0,,'11111222,11111222,99999999' 
WAVCIS,ioos:station:WAVCIS:CSI15:1,2009-03-05T03:00:00Z,28.8332,-90.8320,10.0,9.86,114.0,,'11111222,11111222,99999999' 
WAVCIS,ioos:station:WAVCIS:CSI15:1,2009-03-05T04:00:00Z,28.8332,-90.8320,10.0,10.03,115.0,,'11111222,11111222,99999999' 
WAVCIS,ioos:station:WAVCIS:CSI15:1,2009-03-05T05:00:00Z,28.8332,-90.8320,10.0,12.17,119.0,,'11111222,11111222,99999999' 
WAVCIS,ioos:station:WAVCIS:CSI15:1,2009-03-05T06:00:00Z,28.8332,-90.8320,10.0,10.55,120.0,,'11111222,11111222,99999999' 
WAVCIS,ioos:station:WAVCIS:CSI15:1,2009-03-05T07:00:00Z,28.8332,-90.8320,10.0,9.85,126.0,,'11111222,11111222,99999999' 
WAVCIS,ioos:station:WAVCIS:CSI15:1,2009-03-05T08:00:00Z,28.8332,-90.8320,10.0,9.14,125.0,,'11111222,11111222,99999999' 
WAVCIS,ioos:station:WAVCIS:CSI15:1,2009-03-05T09:00:00Z,28.8332,-90.8320,10.0,9.45,124.0,,'11111222,11111222,99999999' 
WAVCIS,ioos:station:WAVCIS:CSI15:1,2009-03-05T10:00:00Z,28.8332,-90.8320,10.0,9.31,122.0,,'11111222,11111222,99999999' 
WAVCIS,ioos:station:WAVCIS:CSI15:1,2009-03-05T11:00:00Z,28.8332,-90.8320,10.0,8.95,114.0,,'11111222,11111222,99999999' 
WAVCIS,ioos:station:WAVCIS:CSI15:1,2009-03-05T12:00:00Z,28.8332,-90.8320,10.0,8.12,111.0,,'11111222,11111222,99999999' 
WAVCIS,ioos:station:WAVCIS:CSI15:1,2009-03-05T13:00:00Z,28.8332,-90.8320,10.0,7.66,112.0,,'11111222,11111222,99999999' 
WAVCIS,ioos:station:WAVCIS:CSI15:1,2009-03-05T14:00:00Z,28.8332,-90.8320,10.0,7.1,111.0,,'11111222,11111222,99999999' 
WAVCIS,ioos:station:WAVCIS:CSI15:1,2009-03-05T15:00:00Z,28.8332,-90.8320,10.0,7.98,109.0,,'11111222,11111222,99999999' 
WAVCIS,ioos:station:WAVCIS:CSI15:1,2009-03-05T16:00:00Z,28.8332,-90.8320,10.0,6.984,103.0,,'11111222,11111222,99999999' 
WAVCIS,ioos:station:WAVCIS:CSI15:1,2009-03-05T17:00:00Z,28.8332,-90.8320,10.0,6.938,98.0,,'11111222,11111222,99999999' 
WAVCIS,ioos:station:WAVCIS:CSI15:1,2009-03-05T18:00:00Z,28.8332,-90.8320,10.0,5.761,96.0,,'11111222,11111222,99999999' 
WAVCIS,ioos:station:WAVCIS:CSI15:1,2009-03-05T19:00:00Z,28.8332,-90.8320,10.0,5.979,87.0,,'11111222,11111222,99999999' 
WAVCIS,ioos:station:WAVCIS:CSI15:1,2009-03-05T20:00:00Z,28.8332,-90.8320,10.0,7.17,92.0,,'11111222,11111222,99999999' 
WAVCIS,ioos:station:WAVCIS:CSI15:1,2009-03-05T21:00:00Z,28.8332,-90.8320,10.0,7.45,98.0,,'11111222,11111222,99999999' 
WAVCIS,ioos:station:WAVCIS:CSI15:1,2009-03-05T22:00:00Z,28.8332,-90.8320,10.0,8.02,102.0,,'11111222,11111222,99999999' 
WAVCIS,ioos:station:WAVCIS:CSI15:1,2009-03-05T23:00:00Z,28.8332,-90.8320,10.0,8.38,103.0,,'11111222,11111222,99999999' 
WAVCIS,ioos:station:WAVCIS:CSI15:1,2009-03-06T00:00:00Z,28.8332,-90.8320,10.0,8.23,105.0,,'11111222,11111222,99999999' 
WAVCIS,ioos:station:WAVCIS:CSI15:1,2009-03-06T01:00:00Z,28.8332,-90.8320,10.0,8.36,105.0,,'11111222,11111222,99999999' 
WAVCIS,ioos:station:WAVCIS:CSI15:1,2009-03-06T02:00:00Z,28.8332,-90.8320,10.0,8.99,108.0,,'11111222,11111222,99999999' 
WAVCIS,ioos:station:WAVCIS:CSI15:1,2009-03-06T03:00:00Z,28.8332,-90.8320,10.0,9.44,111.0,,'11111222,11111222,99999999' 
WAVCIS,ioos:station:WAVCIS:CSI15:1,2009-03-06T04:00:00Z,28.8332,-90.8320,10.0,9.24,110.0,,'11111222,11111222,99999999' 
WAVCIS,ioos:station:WAVCIS:CSI15:1,2009-03-06T05:00:00Z,28.8332,-90.8320,10.0,7.72,121.0,,'11111222,11111222,99999999' 
WAVCIS,ioos:station:WAVCIS:CSI15:1,2009-03-06T06:00:00Z,28.8332,-90.8320,10.0,8.04,123.0,,'11111222,11111222,99999999' 
WAVCIS,ioos:station:WAVCIS:CSI15:1,2009-03-06T07:00:00Z,28.8332,-90.8320,10.0,6.767,126.0,,'11111222,11111222,99999999' 
WAVCIS,ioos:station:WAVCIS:CSI15:1,2009-03-06T08:00:00Z,28.8332,-90.8320,10.0,5.505,122.0,,'11111222,11111222,99999999' 
WAVCIS,ioos:station:WAVCIS:CSI15:1,2009-03-06T09:00:00Z,28.8332,-90.8320,10.0,5.056,115.0,,'11111222,11111222,99999999' 
WAVCIS,ioos:station:WAVCIS:CSI15:1,2009-03-06T10:00:00Z,28.8332,-90.8320,10.0,4.945,109.0,,'11111222,11111222,99999999' 
WAVCIS,ioos:station:WAVCIS:CSI15:1,2009-03-06T11:00:00Z,28.8332,-90.8320,10.0,5.441,116.0,,'11111222,11111222,99999999' 
WAVCIS,ioos:station:WAVCIS:CSI15:1,2009-03-06T12:00:00Z,28.8332,-90.8320,10.0,5.714,119.0,,'11111222,11111222,99999999' 
WAVCIS,ioos:station:WAVCIS:CSI15:1,2009-03-06T13:00:00Z,28.8332,-90.8320,10.0,5.964,117.0,,'11111222,11111222,99999999' 
WAVCIS,ioos:station:WAVCIS:CSI15:1,2009-03-06T14:00:00Z,28.8332,-90.8320,10.0,5.672,118.0,,'11111222,11111222,99999999' 
WAVCIS,ioos:station:WAVCIS:CSI15:1,2009-03-06T15:00:00Z,28.8332,-90.8320,10.0,6.065,119.0,,'11111222,11111222,99999999' 
WAVCIS,ioos:station:WAVCIS:CSI15:1,2009-03-06T16:00:00Z,28.8332,-90.8320,10.0,4.834,106.0,,'11111222,11111222,99999999' 
WAVCIS,ioos:station:WAVCIS:CSI15:1,2009-03-06T17:00:00Z,28.8332,-90.8320,10.0,5.182,101.0,,'11111222,11111222,99999999' 
WAVCIS,ioos:station:WAVCIS:CSI15:1,2009-03-06T18:00:00Z,28.8332,-90.8320,10.0,4.262,93.0,,'11111222,11111222,99999999' 
WAVCIS,ioos:station:WAVCIS:CSI15:1,2009-03-06T19:00:00Z,28.8332,-90.8320,10.0,4.052,89.0,,'11111222,11111222,99999999' 
WAVCIS,ioos:station:WAVCIS:CSI15:1,2009-03-06T20:00:00Z,28.8332,-90.8320,10.0,3.631,83.0,,'11111222,11111222,99999999' 
WAVCIS,ioos:station:WAVCIS:CSI15:1,2009-03-06T21:00:00Z,28.8332,-90.8320,10.0,4.022,77.0,,'11111222,11111222,99999999' 
WAVCIS,ioos:station:WAVCIS:CSI15:1,2009-03-06T22:00:00Z,28.8332,-90.8320,10.0,4.903,85.0,,'11111222,11111222,99999999' 
WAVCIS,ioos:station:WAVCIS:CSI15:1,2009-03-06T23:00:00Z,28.8332,-90.8320,10.0,5.08,90.0,,'11111222,11111222,99999999' 
WAVCIS,ioos:station:WAVCIS:CSI15:1,2009-03-07T00:00:00Z,28.8332,-90.8320,10.0,5.724,86.0,,'11111222,11111222,99999999' 
WAVCIS,ioos:station:WAVCIS:CSI15:1,2009-03-07T01:00:00Z,28.8332,-90.8320,10.0,6.007,85.0,,'11111222,11111222,99999999' 
WAVCIS,ioos:station:WAVCIS:CSI15:1,2009-03-07T02:00:00Z,28.8332,-90.8320,10.0,6.946,88.0,,'11111222,11111222,99999999' 
WAVCIS,ioos:station:WAVCIS:CSI15:1,2009-03-07T03:00:00Z,28.8332,-90.8320,10.0,6.769,87.0,,'11111222,11111222,99999999' 
WAVCIS,ioos:station:WAVCIS:CSI15:1,2009-03-07T04:00:00Z,28.8332,-90.8320,10.0,6.574,97.0,,'11111222,11111222,99999999' 
WAVCIS,ioos:station:WAVCIS:CSI15:1,2009-03-07T05:00:00Z,28.8332,-90.8320,10.0,7.56,108.0,,'11111222,11111222,99999999' 
WAVCIS,ioos:station:WAVCIS:CSI15:1,2009-03-07T06:00:00Z,28.8332,-90.8320,10.0,7.81,119.0,,'11111222,11111222,99999999' 
WAVCIS,ioos:station:WAVCIS:CSI15:1,2009-03-07T07:00:00Z,28.8332,-90.8320,10.0,6.994,118.0,,'11111222,11111222,99999999' 
WAVCIS,ioos:station:WAVCIS:CSI15:1,2009-03-07T21:00:00Z,28.8332,-90.8320,10.0,6.555,114.0,,'11111222,11111222,99999999' 
WAVCIS,ioos:station:WAVCIS:CSI15:1,2009-03-07T22:00:00Z,28.8332,-90.8320,10.0,6.491,106.0,,'11111222,11111222,99999999' 
WAVCIS,ioos:station:WAVCIS:CSI15:1,2009-03-07T23:00:00Z,28.8332,-90.8320,10.0,6.211,99.0,,'11111222,11111222,99999999' 
WAVCIS,ioos:station:WAVCIS:CSI15:1,2009-03-08T00:00:00Z,28.8332,-90.8320,10.0,5.208,93.0,,'11111222,11111222,99999999' 
WAVCIS,ioos:station:WAVCIS:CSI15:1,2009-03-08T01:00:00Z,28.8332,-90.8320,10.0,6.583,94.0,,'11111222,11111222,99999999' 
WAVCIS,ioos:station:WAVCIS:CSI15:1,2009-03-08T02:00:00Z,28.8332,-90.8320,10.0,7.22,99.0,,'11111222,11111222,99999999' 
WAVCIS,ioos:station:WAVCIS:CSI15:1,2009-03-08T03:00:00Z,28.8332,-90.8320,10.0,5.797,91.0,,'11111222,11111222,99999999' 
WAVCIS,ioos:station:WAVCIS:CSI15:1,2009-03-08T04:00:00Z,28.8332,-90.8320,10.0,5.632,94.0,,'11111222,11111222,99999999' 
WAVCIS,ioos:station:WAVCIS:CSI15:1,2009-03-08T05:00:00Z,28.8332,-90.8320,10.0,6.285,97.0,,'11111222,11111222,99999999' 
WAVCIS,ioos:station:WAVCIS:CSI15:1,2009-03-08T06:00:00Z,28.8332,-90.8320,10.0,6.475,100.0,,'11111222,11111222,99999999' 
WAVCIS,ioos:station:WAVCIS:CSI15:1,2009-03-08T07:00:00Z,28.8332,-90.8320,10.0,7.14,98.0,,'11111222,11111222,99999999' 
WAVCIS,ioos:station:WAVCIS:CSI15:1,2009-03-08T08:00:00Z,28.8332,-90.8320,10.0,6.07,108.0,,'11111222,11111222,99999999' 
WAVCIS,ioos:station:WAVCIS:CSI15:1,2009-03-08T09:00:00Z,28.8332,-90.8320,10.0,6.486,133.0,,'11111222,11111222,99999999' 
WAVCIS,ioos:station:WAVCIS:CSI15:1,2009-03-08T10:00:00Z,28.8332,-90.8320,10.0,5.935,143.0,,'11111222,11111222,99999999' 
WAVCIS,ioos:station:WAVCIS:CSI15:1,2009-03-08T11:00:00Z,28.8332,-90.8320,10.0,7.67,130.0,,'11111222,11111222,99999999' 
WAVCIS,ioos:station:WAVCIS:CSI15:1,2009-03-08T12:00:00Z,28.8332,-90.8320,10.0,4.601,137.0,,'11111222,11111222,99999999' 
WAVCIS,ioos:station:WAVCIS:CSI15:1,2009-03-08T13:00:00Z,28.8332,-90.8320,10.0,3.833,145.0,,'11111222,11111222,99999999' 
WAVCIS,ioos:station:WAVCIS:CSI15:1,2009-03-08T14:00:00Z,28.8332,-90.8320,10.0,2.34,143.0,,'11111222,11111222,99999999' 
WAVCIS,ioos:station:WAVCIS:CSI15:1,2009-03-08T15:00:00Z,28.8332,-90.8320,10.0,2.762,170.0,,'11111222,11111222,99999999' 
WAVCIS,ioos:station:WAVCIS:CSI15:1,2009-03-08T16:00:00Z,28.8332,-90.8320,10.0,1.708,169.0,,'11111222,11111222,99999999' 
WAVCIS,ioos:station:WAVCIS:CSI15:1,2009-03-08T17:00:00Z,28.8332,-90.8320,10.0,1.413,173.0,,'11111222,11111222,99999999' 
WAVCIS,ioos:station:WAVCIS:CSI15:1,2009-03-08T18:00:00Z,28.8332,-90.8320,10.0,0.533,142.0,,'11111222,11111222,99999999' 
WAVCIS,ioos:station:WAVCIS:CSI15:1,2009-03-08T19:00:00Z,28.8332,-90.8320,10.0,1.038,101.0,,'11111222,11111222,99999999' 
WAVCIS,ioos:station:WAVCIS:CSI15:1,2009-03-08T20:00:00Z,28.8332,-90.8320,10.0,1.931,96.0,,'11111222,11111222,99999999' 
WAVCIS,ioos:station:WAVCIS:CSI15:1,2009-03-08T21:00:00Z,28.8332,-90.8320,10.0,2.062,93.0,,'11111222,11111222,99999999' 
WAVCIS,ioos:station:WAVCIS:CSI15:1,2009-03-08T22:00:00Z,28.8332,-90.8320,10.0,3.441,109.0,,'11111222,11111222,99999999' 
WAVCIS,ioos:station:WAVCIS:CSI15:1,2009-03-08T23:00:00Z,28.8332,-90.8320,10.0,3.162,111.0,,'11111222,11111222,99999999' 
WAVCIS,ioos:station:WAVCIS:CSI15:1,2009-03-09T00:00:00Z,28.8332,-90.8320,10.0,3.506,103.0,,'11111222,11111222,99999999' 
WAVCIS,ioos:station:WAVCIS:CSI15:1,2009-03-09T01:00:00Z,28.8332,-90.8320,10.0,5.181,124.0,,'11111222,11111222,99999999' 
WAVCIS,ioos:station:WAVCIS:CSI15:1,2009-03-09T02:00:00Z,28.8332,-90.8320,10.0,5.603,124.0,,'11111222,11111222,99999999' 
WAVCIS,ioos:station:WAVCIS:CSI15:1,2009-03-09T03:00:00Z,28.8332,-90.8320,10.0,4.576,117.0,,'11111222,11111222,99999999' 
WAVCIS,ioos:station:WAVCIS:CSI15:1,2009-03-09T04:00:00Z,28.8332,-90.8320,10.0,5.231,123.0,,'11111222,11111222,99999999' 
WAVCIS,ioos:station:WAVCIS:CSI15:1,2009-03-09T05:00:00Z,28.8332,-90.8320,10.0,4.949,124.0,,'11111222,11111222,99999999' 
WAVCIS,ioos:station:WAVCIS:CSI15:1,2009-03-09T06:00:00Z,28.8332,-90.8320,10.0,3.909,126.0,,'11111222,11111222,99999999' 
WAVCIS,ioos:station:WAVCIS:CSI15:1,2009-03-09T07:00:00Z,28.8332,-90.8320,10.0,4.377,126.0,,'11111222,11111222,99999999' 
WAVCIS,ioos:station:WAVCIS:CSI15:1,2009-03-09T08:00:00Z,28.8332,-90.8320,10.0,4.279,130.0,,'11111222,11111222,99999999' 
WAVCIS,ioos:station:WAVCIS:CSI15:1,2009-03-09T09:00:00Z,28.8332,-90.8320,10.0,4.847,126.0,,'11111222,11111222,99999999' 
WAVCIS,ioos:station:WAVCIS:CSI15:1,2009-03-09T10:00:00Z,28.8332,-90.8320,10.0,4.598,120.0,,'11111222,11111222,99999999' 
WAVCIS,ioos:station:WAVCIS:CSI15:1,2009-03-09T11:00:00Z,28.8332,-90.8320,10.0,5.613,123.0,,'11111222,11111222,99999999' 
WAVCIS,ioos:station:WAVCIS:CSI15:1,2009-03-09T12:00:00Z,28.8332,-90.8320,10.0,5.474,115.0,,'11111222,11111222,99999999' 
WAVCIS,ioos:station:WAVCIS:CSI15:1,2009-03-09T13:00:00Z,28.8332,-90.8320,10.0,4.57,105.0,,'11111222,11111222,99999999' 
WAVCIS,ioos:station:WAVCIS:CSI15:1,2009-03-09T14:00:00Z,28.8332,-90.8320,10.0,4.362,102.0,,'11111222,11111222,99999999' 
WAVCIS,ioos:station:WAVCIS:CSI15:1,2009-03-09T15:00:00Z,28.8332,-90.8320,10.0,3.465,88.0,,'11111222,11111222,99999999' 
WAVCIS,ioos:station:WAVCIS:CSI15:1,2009-03-09T16:00:00Z,28.8332,-90.8320,10.0,4.033,97.0,,'11111222,11111222,99999999' 
WAVCIS,ioos:station:WAVCIS:CSI15:1,2009-03-09T17:00:00Z,28.8332,-90.8320,10.0,4.251,89.0,,'11111222,11111222,99999999' 
WAVCIS,ioos:station:WAVCIS:CSI15:1,2009-03-09T18:00:00Z,28.8332,-90.8320,10.0,5.206,98.0,,'11111222,11111222,99999999' 